Starlink 11168

operational
NORAD ID: 60183 Int'l Des: 2024-124 Owner: SPXS Country: US Constellation: starlink
LEOCIRCULAR

Starlink 11168について

説明を読み込み中...

リアルタイム位置

3D地球を読み込み中...

次回通過

高度履歴

Altitude vs Time

uPlot chart will show altitude changes over time

軌道要素

1 60183U 24124A 25349.89098788 .00002364 00000-0 24372-4 0 9998
2 60183 53.1571 214.2747 0001712 91.3762 268.7452 15.69707071 84568
Epoch: Dec 15, 2025 • Age: 29 hours

現在のステータス

高度 360.1 km
速度 7.70 km/s
衛星直下点 23.91°N, 103.41°E
打ち上げ日 Jul 3, 2024
運用期間 1.4 years
タイプ internet

技術仕様

分類 Payload
質量 960.00 kg
乾燥質量 910.00 kg
総質量 960.00 kg
長さ 0.30 m
直径 4.10 m
スパン 29.00 m
形状 Box + pan
製造者 SPXS
バスタイプ Starlink V2MD
フェーズステータス In Orbit
所有者/国 SPXS/US

大規模コンステレーション

Loading constellations...